This is the latest recevied weather packets stored in our database for station/object W2OBX. If no packets are shown the sender has not sent any weather packets the latest 10 day(s).
| Time | Temp. | Humidity | Pressure | Rain* | Wind** | Luminosity | Snow |
|---|---|---|---|---|---|---|---|
| 1778193092 | 15.56° C | 87% | 1014.2 hPa | 0 mm | - | 25 W/m² | - |
| 1778192789 | 15.56° C | 89% | 1014.3 hPa | 0 mm | - | 21 W/m² | - |
| 1778192485 | 15.56° C | 86% | 1014.4 hPa | 0 mm | - | 22 W/m² | - |
| 1778192181 | 15.56° C | 87% | 1014.3 hPa | 0 mm | - | 20 W/m² | - |
| 1778191878 | 15.56° C | 87% | 1014.2 hPa | 0 mm | - | 24 W/m² | - |
| 1778191575 | 15° C | 87% | 1014.2 hPa | 0 mm | - | 26 W/m² | - |
| 1778191273 | 15° C | 89% | 1014.2 hPa | 0 mm | - | 27 W/m² | - |
| 1778190968 | 15° C | 90% | 1014.1 hPa | 0 mm | - | 34 W/m² | - |
| 1778190667 | 15.56° C | 90% | 1014.1 hPa | 0 mm | - | 36 W/m² | - |
| 1778190364 | 15° C | 89% | 1014 hPa | 0 mm | - | 34 W/m² | - |
| 1778190059 | 15° C | 91% | 1014.1 hPa | 0 mm | - | 44 W/m² | - |
| 1778189756 | 15° C | 89% | 1013.9 hPa | 0 mm | - | 36 W/m² | - |
| 1778189453 | 15° C | 90% | 1013.9 hPa | 0 mm | - | 30 W/m² | - |
| 1778189149 | 15.56° C | 87% | 1013.9 hPa | 0 mm | - | 39 W/m² | - |
| 1778188846 | 15.56° C | 85% | 1013.7 hPa | 0 mm | - | 40 W/m² | - |
| 1778188543 | 15.56° C | 87% | 1013.6 hPa | 0 mm | - | 73 W/m² | - |
| 1778188239 | 15.56° C | 92% | 1013.8 hPa | 0 mm | - | 86 W/m² | - |
| 1778187936 | 15° C | 92% | 1013.6 hPa | 0 mm | - | 50 W/m² | - |
| 1778187633 | 15° C | 90% | 1013.6 hPa | 0 mm | - | 77 W/m² | - |
| 1778187329 | 15° C | 91% | 1013.6 hPa | 0 mm | - | 159 W/m² | - |
| 1778187026 | 15.56° C | 91% | 1013.7 hPa | 0 mm | - | 123 W/m² | - |
| 1778186722 | 15° C | 92% | 1013.8 hPa | 0 mm | - | 158 W/m² | - |
| 1778186420 | 14.44° C | 93% | 1013.6 hPa | 0 mm | - | 91 W/m² | - |
| 1778186118 | 14.44° C | 93% | 1013.8 hPa | 0 mm | - | 89 W/m² | - |
| 1778185815 | 15° C | 94% | 1013.9 hPa | 0 mm | - | 94 W/m² | - |
* Rain latest hour (hover to see other rain measurements)
** Current wind speed in m/s (hover to see current wind gust speed)